Regional Weather Roundup
Issued by NWS

Home | Current Version | Previous Version | Text Only | Print | Product List | Glossary Off
Versions: 1 2 3 4 5 6 7 8 9 10 11 12 13 14 15 16 17 18 19 20 21 22 23 24 25 26 27 28 29 30 31 32 33 34 35 36 37 38 39 40 41 42 43 44 45 46 47 48 49 50

000
ASUS45 KCYS 201310
RWRWY

WYOMING REGIONAL WEATHER ROUNDUP
NATIONAL WEATHER SERVICE CHEYENNE WY
600 AM MST THU NOV 20 2014

NOTE:  "FAIR" INDICATES FEW OR NO CLOUDS BELOW 12,000 FEET
WITH NO SIGNIFICANT WEATHER AND/OR OBSTRUCTIONS TO VISIBILITY.

WYZ001-201400-
YELLOWSTONE NATIONAL PARK

CITY           SKY/WX    TMP DP  RH WIND       PRES   REMARKS
LK YELLOWSTONE   N/A     15  12  88 NW3       30.07S
W YELLOWSTONE  NOT AVBL

$$
WYZ002>013-054>058-071-098>099-201400-
NORTHERN WYOMING

CITY           SKY/WX    TMP DP  RH WIND       PRES   REMARKS
JACKSON        NOT AVBL
CODY           PTCLDY    12  10  92 CALM      29.91R
GREYBULL       PTCLDY    -2  -6  83 CALM      30.00S
WORLAND        PTCLDY     6   2  83 S6        29.97S WCI  -4
SHERIDAN       PTCLDY    13   9  84 NW3       29.90S
BUFFALO        PTCLDY    29  12  49 NW5       29.90S WCI  24
GILLETTE       PTCLDY    10   6  84 CALM      29.91S
HULETT         FAIR      14  10  85 SW5       29.93S WCI   6
NEWCASTLE        N/A    N/A N/A N/A MISG        N/A

$$
WYZ014>020-022>026-101>103-201400-
CENTRAL WYOMING

CITY           SKY/WX    TMP DP  RH WIND       PRES   REMARKS
BIG PINEY      MOCLDY    15  11  83 E3        30.05S
PINEDALE       MOSUNNY   14  10  85 CALM      30.05F
DUBOIS         FAIR      28   9  43 NW12G20   29.97R WCI  18
LANDER         PTCLDY    15  10  80 SE3       29.95S
RIVERTON       PTCLDY     8   4  83 CALM      29.97S
CASPER         PTCLDY    29  14  53 SW13      29.96R WCI  19
DOUGLAS        PTCLDY     8   3  80 CALM      29.97S

$$
WYZ021-027>030-104>119-201400-
SOUTHERN WYOMING

CITY           SKY/WX    TMP DP  RH WIND       PRES   REMARKS
EVANSTON       MOCLDY    29  12  49 S5        30.07S WCI  24
KEMMERER       CLOUDY    27  16  63 CALM      30.06S
FORT BRIDGER   FAIR      34  11  38 W12       30.09S WCI  25
ROCK SPRINGS   PTCLDY    29  12  49 SW14      30.05S WCI  18
DIXON          CLOUDY    28  17  64 E5        30.11S WCI  22
RAWLINS        PTCLDY    29  11  47 E6        30.02R WCI  23
SARATOGA       PTSUNNY   28  14  54 SE7       30.04R WCI  21
LARAMIE        PTCLDY    20   7  57 S8        29.98S WCI  10
CHEYENNE       PTCLDY    25   9  50 CALM      29.97S
TORRINGTON     MOCLDY    12   9  87 CALM      29.97F
PINE BLUFFS    FAIR      14  10  85 SW6       29.98S WCI   5

$$


USA.gov is the U.S. government's official web portal to all federal, state and local government web resources and services.